Location: Kermapucano
(48.0667°N, 3.3000°W)
Time: 20:34:31
(UTC+00:00)

ATLAS CENTAUR R/B - Pass Details

Date: 29 November 2020
Orbit: 477 x 668 km, 64.7° (Epoch: 25 January)

Event Time Altitude Azimuth Distance (km) Brightness Sun altitude
Exits shadow 04:32:32 21° 70° (ENE) 1,169 3.6 -30.6°
Drops below altitude 10° 04:34:31 10° 97° (E) 1,731 4.7 -30.2°
Sets 04:37:01 0° 111° (ESE) 2,647 5.8 -29.8°
